Regional Weather Roundup
Issued by NWS

Home | Current Version | Previous Version | Text Only | Print | Product List | Glossary Off
Versions: 1 2 3 4 5 6 7 8 9 10 11 12 13 14 15 16 17 18 19 20 21 22 23 24 25 26 27 28 29 30 31 32 33 34 35 36 37 38 39 40 41 42 43 44 45 46 47 48 49 50

000
ASUS44 KMEG 051110
RWRTN
TENNESSEE HOURLY STATE WEATHER ROUNDUP
NATIONAL WEATHER SERVICE MEMPHIS TN
600 AM CDT THU MAY 05 2016

TNZ002-004-019-021-049-052-054-088>092-051200-
WEST TENNESSEE

CITY           SKY/WX    TMP DP  RH WIND       PRES   REMARKS
MEMPHIS INTL   PTCLDY    51  46  83 CALM      29.91R
NWS MEMPHIS      N/A     47 N/A N/A MISG        N/A
JACKSON        CLEAR     47  43  86 W6        29.87R
DYERSBURG      CLEAR     48  45  87 W8        29.88S
UNION CITY     CLEAR     48  45  87 W7        29.85R
LEXINGTON      CLEAR     41  39  93 W3        29.84S
$$

TNZ008-025-027-028-033-062-065-066-051200-
NORTH MIDDLE TENNESSEE

CITY           SKY/WX    TMP DP  RH WIND       PRES   REMARKS
NASHVILLE      PTCLDY    45  40  82 SW3       29.81S
CLARKSVILLE    CLEAR     45  41  86 W9        29.81S
SMYRNA         CLEAR     43  41  93 W6        29.82S
COOKEVILLE     CLEAR     37  37 100 CALM      29.77S
CROSSVILLE     CLEAR     40  39  97 W5        29.77R
$$

TNZ061-075-076-078-094-096-097-051200-
SOUTH MIDDLE TENNESSEE

CITY           SKY/WX    TMP DP  RH WIND       PRES   REMARKS
FAYETTEVILLE   CLEAR     43  43 100 CALM      29.82R
TULLAHOMA      CLEAR     37  37 100 CALM      29.81R
WINCHESTER     PTCLDY    37  37 100 CALM      29.82R
MCMINNVILLE    CLEAR     43  43 100 W5        29.79S
COLUMBIA       MOCLDY   N/A N/A N/A SW3       29.81S
SHELBYVILLE    CLEAR     39  39 100 CALM      29.82S
$$

TNZ017-018-042-046-047-051200-
NORTHEAST TENNESSEE

CITY           SKY/WX    TMP DP  RH WIND       PRES   REMARKS
TRI CITIES     PTCLDY    43  40  89 NW5       29.72R
$$

TNZ012-013-036-069-073-074-051200-
CENTRAL EAST TENNESSEE

CITY           SKY/WX    TMP DP  RH WIND       PRES   REMARKS
KNOXVILLE      PTCLDY    46  44  93 W3        29.76R
OAK RIDGE      MOCLDY    46  44  93 CALM      29.77R
GATLINBURG     MOSUNNY   45  43  93 CALM      29.75R
MORRISTOWN     SUNNY     45  41  87 NW6       29.74R
$$

TNZ083-085-099-051200-
SOUTHEAST TENNESSEE

CITY           SKY/WX    TMP DP  RH WIND       PRES   REMARKS
CHATTANOOGA    PTCLDY    48  41  76 N5        29.80R
$$

SKY/WX REPORTED AS FAIR MEANS FEW OR NO CLOUDS BELOW
12 THOUSAND FEET.





USA.gov is the U.S. government's official web portal to all federal, state and local government web resources and services.